Change the Weather History Date:

Wednesday, January 23, 2013

  Actual Average Record
Temperature  
Mean Temperature 38 °F 22 °F  
Max Temperature 49 °F 33 °F 56 °F (2005)
Min Temperature 26 °F 10 °F -22 °F (1963)
Degree Days  
Heating Degree Days 27 43  
Month to date heating degree days 1160 990  
Since 1 July heating degree days 4370 4663  
Cooling Degree Days 0 0  
Month to date cooling degree days 0 0  
Year to date cooling degree days 0 0  
Moisture  
Dew Point 9 °F    
Average Humidity 27    
Maximum Humidity 37    
Minimum Humidity 17    
Precipitation  
Precipitation 0.00 in 0.01 in 0.10 in (1988)
Month to date precipitation T 0.19  
Year to date precipitation T 0.19  
Sea Level Pressure  
Sea Level Pressure 30.12 in    
Wind  
Wind Speed 18 mph (SW)    
Max Wind Speed 32 mph    
Max Gust Speed 39 mph    
Visibility 10 miles    
Events      
T = Trace of Precipitation, MM = Missing Value Source: NWS Daily Summary

Daily Weather History Graph

Daily Weather History Graph

Search for Another Location

Airport or City:

Trip Planner

Search our weather history database for the weather conditions in past years. The results will help you decide how hot, cold, wet, or windy it might be!

Date:

Astronomy

Jan. 23, 2013 Rise Set
Actual Time 7:21 AM MST 5:08 PM MST
Civil Twilight 6:51 AM MST 5:38 PM MST
Nautical Twilight 6:18 AM MST 6:11 PM MST
Astronomical Twilight 5:45 AM MST 6:44 PM MST
Moon 2:20 PM MST (1/23) 4:35 AM MST (1/23)
Length of Visible Light 10h 46m
Length of Day
9h 46m
Waxing Gibbous, 89% of the Moon is Illuminated
Jan 23
Waxing Gibbous
Jan 26
Full
Feb 3
Last Quarter
Feb 10
New
Feb 17
First Quarter

Hourly Weather History & Observations

Time (MST) Temp. Windchill Dew Point Humidity Pressure Visibility Wind Dir Wind Speed Gust Speed Precip Events Conditions
12:53 AM 36.0 °F - -6.0 °F 17% 30.11 in 10.0 mi Calm Calm - N/A   Clear
1:53 AM 28.9 °F 20.4 °F 1.9 °F 32% 30.14 in 10.0 mi West 9.2 mph - N/A   Clear
2:53 AM 30.0 °F 18.3 °F 3.0 °F 32% 30.14 in 10.0 mi West 17.3 mph - N/A   Clear
3:53 AM 28.9 °F 17.7 °F 3.0 °F 33% 30.15 in 10.0 mi West 15.0 mph - N/A   Clear
4:53 AM 35.1 °F 21.8 °F 3.9 °F 27% 30.13 in 10.0 mi WSW 29.9 mph 34.5 mph N/A   Clear
5:53 AM 35.1 °F 21.6 °F 3.9 °F 27% 30.13 in 10.0 mi WSW 31.1 mph - N/A   Clear
6:53 AM 35.1 °F 22.5 °F 5.0 °F 28% 30.18 in 10.0 mi SW 26.5 mph 34.5 mph N/A   Clear
7:53 AM 34.0 °F 22.1 °F 7.0 °F 32% 30.17 in 10.0 mi SW 21.9 mph - N/A   Clear
8:53 AM 37.0 °F 27.4 °F 9.0 °F 31% 30.23 in 10.0 mi SW 17.3 mph - N/A   Clear
9:53 AM 39.0 °F 29.0 °F 10.9 °F 32% 30.22 in 10.0 mi SW 20.7 mph - N/A   Clear
10:53 AM 43.0 °F 34.0 °F 12.9 °F 30% 30.14 in 10.0 mi SW 21.9 mph - N/A   Clear
11:53 AM 46.0 °F 38.0 °F 14.0 °F 28% 30.10 in 10.0 mi SW 21.9 mph - N/A   Clear
12:53 PM 48.0 °F - 14.0 °F 26% 30.06 in 10.0 mi SW 18.4 mph - N/A   Clear
1:53 PM 48.0 °F - 14.0 °F 26% 30.07 in 10.0 mi WSW 17.3 mph - N/A   Clear
2:53 PM 46.0 °F 42.5 °F 17.1 °F 31% 30.10 in 10.0 mi SW 6.9 mph - N/A   Clear
3:53 PM 45.0 °F 38.5 °F 14.0 °F 29% 30.13 in 10.0 mi SW 13.8 mph - N/A   Clear
4:53 PM 46.0 °F 41.0 °F 9.0 °F 22% 30.09 in 10.0 mi West 10.4 mph 17.3 mph N/A   Clear
5:53 PM 39.0 °F 31.0 °F 15.1 °F 38% 30.13 in 10.0 mi SSW 13.8 mph - N/A   Clear
6:53 PM 43.0 °F 35.7 °F 9.0 °F 25% 30.09 in 10.0 mi SSW 15.0 mph - N/A   Clear
7:53 PM 42.1 °F 33.6 °F 10.0 °F 27% 30.09 in 10.0 mi SW 18.4 mph 23.0 mph N/A   Clear
8:09 PM 42.8 °F 33.8 °F 10.4 °F 27% 30.16 in 10.0 mi WSW 21.9 mph - N/A   Clear
8:53 PM 41.0 °F 32.2 °F 10.0 °F 28% 30.09 in 10.0 mi WSW 18.4 mph - N/A   Clear
10:53 PM 39.0 °F 30.6 °F 9.0 °F 29% 30.05 in 10.0 mi SW 15.0 mph 23.0 mph N/A   Clear
11:53 PM 39.0 °F 29.0 °F 9.0 °F 29% 30.02 in 10.0 mi SW 20.7 mph 33.4 mph N/A   Clear